[[{"header":{"parameterUnit":"m.s-1","parameterCategory":1,"la1":30.2991,"la2":30.254,"lo1":-89.0895,"lo2":-89.0444,"dy":0.0017,"dx":0.0017,"nx":28,"ny":28,"refTime":"2025-06-15T21:00:00:Z","depth":0,"parameterNumber":2,"parameterNumberName":"U-component_of_WINDS"},"data":[0,0,0,0,0,0,0,0,0,0,0,0,0,0,0,0,0,0,0,0,0,0,0,0,0,0,0,0,0,0,0,0,0,0,0,0,0,0,0,0,0,0,0,0,0,0,0,0,0,0,0,0,0,0,0,0,0,0,2.0838,2.0839,0,2.086,2.086,2.086,2.0807,2.0806,2.0804,2.0803,2.0825,2.0827,2.0829,0,0,0,0,0,0,0,0,0,0,0,0,0,2.075,2.0752,2.0838,2.0839,2.0839,2.086,2.086,2.086,2.0808,2.0806,2.0804,2.0802,2.0824,2.0827,2.0829,0,0,0,0,0,0,0,0,0,0,0,0,0,2.0782,2.0753,2.0838,2.0815,2.0813,2.086,2.086,2.086,2.0808,2.0806,2.0803,2.0801,2.0823,2.0827,2.083,2.09,0,0,2.084,2.0841,0,0,0,0,0,0,0,0,2.078,2.0785,2.0818,2.0817,2.0815,2.0828,2.0837,2.0874,2.0809,2.081,2.0802,2.08,2.0828,2.0831,2.084,2.0901,2.0902,2.084,2.0842,2.0843,2.0844,0,0,0,0,0,0,0,2.0778,2.0784,2.0847,2.0819,2.0817,2.0803,2.0805,2.0844,2.0833,2.081,2.0806,2.0809,2.0827,2.0837,2.0841,2.0902,2.084,2.0843,2.0845,2.0846,2.1017,2.102,0,0,0,0,0,0,2.0779,2.0782,2.0846,2.0847,2.0791,2.0807,2.0809,2.0827,2.0832,2.0831,2.0811,2.0807,2.0833,2.0837,2.0841,2.092,2.0843,2.0846,2.0848,2.1015,2.1018,2.102,0,0,0,0,0,0,2.0777,2.0785,2.0845,2.0814,2.082,2.0811,2.0831,2.0828,2.0839,2.0834,2.0831,2.0824,2.0831,2.0837,2.0885,2.092,2.0848,2.0851,2.1011,2.1015,2.1019,2.1081,0,0,0,0,0,0,2.0775,2.0785,2.0812,2.0815,2.0822,2.0889,2.0834,2.0831,2.0844,2.0839,2.0845,2.0844,2.083,2.088,2.0888,2.0923,2.0853,2.1008,2.1013,2.1018,2.1075,2.1086,2.1095,0,0,0,0,0,2.0772,2.0829,2.0813,2.0821,2.0856,2.0891,2.0895,2.0878,2.0848,2.0874,2.087,2.0844,2.0916,2.0886,2.0894,2.0931,2.1006,2.1012,2.1017,2.1071,2.1084,2.1095,0,0,0,0,0,0,2.0831,2.0829,2.0812,2.0872,2.0882,2.0882,2.0915,2.0893,2.0912,2.0906,2.0884,2.0886,2.0937,2.0939,2.0906,2.0997,2.0955,2.0963,2.0993,2.1006,2.1016,2.1012,2.0856,0,0,0,0,0,2.0852,2.088,2.0877,2.0931,2.0936,2.0925,2.094,2.0925,2.0935,2.0939,2.0939,2.0949,2.0973,2.099,2.1013,2.1076,2.1075,2.1106,2.1116,2.1124,2.113,2.116,2.1172,2.104,2.104,2.104,0,0,2.0894,2.0896,2.0916,2.0943,2.0949,2.0978,2.0929,2.0963,2.0984,2.0944,2.0988,2.0989,2.0999,2.1054,2.1078,2.1057,2.1167,2.1131,2.1138,2.114,2.1167,2.118,2.1191,2.1044,2.1043,2.1042,0,0,2.0984,2.099,2.1033,2.104,2.1049,2.1041,2.1051,2.1054,2.1052,2.1096,2.1066,2.1091,2.1135,2.1142,2.1151,2.1242,2.1217,2.125,2.1301,2.1331,2.1341,2.135,2.1379,2.139,2.1257,2.1257,2.1257,0,2.1034,2.1077,2.1058,2.1093,2.1104,2.1069,2.1111,2.1119,2.1136,2.1144,2.1121,2.1172,2.1177,2.1231,2.1252,2.1263,2.1272,2.1248,2.1341,2.135,2.1358,2.1385,2.1396,2.1261,2.126,2.126,2.126,0,2.1137,2.1167,2.1201,2.1216,2.1231,2.127,2.1256,2.1274,2.1258,2.1252,2.1295,2.13,2.132,2.1333,2.1319,2.1384,2.137,2.1345,2.1302,2.1375,2.1399,2.141,2.1266,2.1265,2.1264,2.1263,0,0,2.1265,2.1267,2.1279,2.1284,2.1291,2.1313,2.135,2.137,2.1384,2.1397,2.1424,2.1462,2.1437,2.1447,2.1434,2.146,2.1526,2.143,2.143,2.1445,2.1595,2.1611,2.1624,2.1511,2.1513,2.1515,2.1593,0,2.135,2.1411,2.1394,2.1455,2.148,2.1447,2.1478,2.1485,2.148,2.1501,2.1496,2.152,2.1488,2.1493,2.1518,2.1513,2.1556,2.1508,2.1535,2.1536,2.1529,2.1637,2.1656,2.1729,2.1603,2.1604,2.1606,0,2.1458,2.1473,2.1535,2.1535,2.1545,2.1573,2.1588,2.1609,2.1616,2.161,2.1621,2.1601,2.1635,2.1595,2.164,2.1608,2.1618,2.1617,2.162,2.1618,2.1573,2.1636,2.1752,2.1762,2.1621,2.162,2.1619,0,2.154,2.1576,2.1616,2.1622,2.1624,2.1644,2.1645,2.165,2.1661,2.1675,2.1682,2.17,2.1709,2.1723,2.1708,2.1681,2.1755,2.1714,2.1749,2.1749,2.1763,2.1762,2.1879,2.1776,2.1776,2.1776,2.1776,0,2.1635,2.1674,2.1652,2.1677,2.1719,2.1699,2.174,2.1738,2.1742,2.1765,2.1739,2.1761,2.1742,2.1762,2.1751,2.1788,2.1793,2.1788,2.1784,2.1788,2.1788,2.1792,2.1785,2.1779,2.1778,2.1778,2.1777,0,2.1732,2.172,2.1761,2.1759,2.1759,2.1789,2.1786,2.1809,2.1802,2.1831,2.1837,2.1826,2.1848,2.1835,2.1859,2.1851,2.1898,2.1889,2.1895,2.1891,2.1925,2.1921,2.2046,2.206,2.1952,2.1953,2.1954,0,2.1791,2.182,2.182,2.1832,2.1835,2.1857,2.1868,2.185,2.1863,2.1871,2.1892,2.1912,2.1926,2.1963,2.1956,2.1973,2.1962,2.2005,2.1965,2.1967,2.1958,2.1955,2.1956,2.2012,2.2013,2.2015,2.2015,0,2.1897,2.1889,2.1906,2.192,2.1934,2.1945,2.1954,2.1966,2.1947,2.1963,2.1984,2.1996,2.2018,2.2037,2.2051,2.2052,2.203,2.2029,2.2037,2.204,2.204,2.2036,2.1913,2.2025,2.2024,2.2023,2.2023,2.2022,2.1975,2.1997,2.1999,2.2018,2.2022,2.203,2.205,2.2044,2.2062,2.2078,2.2066,2.2091,2.2095,2.2111,2.2115,2.2133,2.2116,2.2129,2.2132,2.2134,2.2137,2.204,2.2137,2.2136,2.2136,2.2136,2.2136,0,2.2075,2.2075,2.2093,2.2104,2.2118,2.2097,2.2105,2.2118,2.214,2.2145,2.2159,2.2182,2.22,2.2195,2.2211,2.2226,2.2216,2.2231,2.2228,2.2227,2.2154,2.2143,2.2238,2.2238,2.2238,2.2238,2.2238,2.2238,2.2129,2.2164,2.2156,2.2192,2.2192,2.2214,2.222,2.2227,2.2231,2.2257,2.2271,2.2268,2.2268,2.2284,2.2298,2.2296,2.2302,2.2319,2.2313,2.2244,2.2233,2.2223,2.2213,2.2321,2.2322,2.2385,2.2385,2.2386]},{"header":{"parameterUnit":"m.s-1","parameterCategory":1,"la1":30.2991,"la2":30.254,"lo1":-89.0895,"lo2":-89.0444,"dy":0.0017,"dx":0.0017,"nx":28,"ny":28,"refTime":"2025-06-15T21:00:00:Z","depth":0,"parameterNumber":3,"parameterNumberName":"V-component_of_WINDS"},"data":[0,0,0,0,0,0,0,0,0,0,0,0,0,0,0,0,0,0,0,0,0,0,0,0,0,0,0,0,0,0,0,0,0,0,0,0,0,0,0,0,0,0,0,0,0,0,0,0,0,0,0,0,0,0,0,0,0,0,3.8359,3.836,0,3.8449,3.845,3.8451,3.8378,3.8375,3.8372,3.8369,3.846,3.8465,3.847,0,0,0,0,0,0,0,0,0,0,0,0,0,3.8121,3.8126,3.8359,3.836,3.8361,3.8448,3.845,3.8451,3.8378,3.8375,3.8371,3.8367,3.8458,3.8465,3.8471,0,0,0,0,0,0,0,0,0,0,0,0,0,3.8219,3.8127,3.8358,3.8335,3.8334,3.8448,3.845,3.8451,3.8379,3.8375,3.837,3.8366,3.8456,3.8464,3.8472,3.8613,0,0,3.8496,3.8499,0,0,0,0,0,0,0,0,3.8214,3.8228,3.8338,3.8337,3.8336,3.8397,3.8399,3.8506,3.838,3.8362,3.8369,3.8363,3.8443,3.8452,3.8479,3.8617,3.8621,3.8497,3.8502,3.8505,3.8507,0,0,0,0,0,0,0,3.8207,3.8224,3.8394,3.8339,3.8338,3.8319,3.8328,3.8419,3.8427,3.8363,3.8358,3.837,3.8441,3.8471,3.848,3.8623,3.8497,3.8504,3.8508,3.8512,3.8878,3.8882,0,0,0,0,0,0,3.8203,3.8218,3.8391,3.8397,3.8262,3.8327,3.8337,3.8382,3.8426,3.8428,3.8374,3.8366,3.846,3.8471,3.8483,3.8649,3.8505,3.8512,3.8517,3.8873,3.8879,3.8884,0,0,0,0,0,0,3.8198,3.8219,3.8388,3.8306,3.8326,3.8336,3.8388,3.8387,3.8416,3.8434,3.8435,3.8403,3.8457,3.8472,3.858,3.8651,3.8516,3.8523,3.8867,3.8875,3.8882,3.8983,0,0,0,0,0,0,3.8191,3.8218,3.8272,3.8308,3.8331,3.8485,3.8392,3.8392,3.843,3.8421,3.8461,3.8464,3.8454,3.8569,3.8588,3.8659,3.8529,3.8861,3.887,3.8879,3.8973,3.8993,3.901,0,0,0,0,0,3.8183,3.8298,3.8276,3.8297,3.84,3.8489,3.8502,3.8489,3.8436,3.849,3.8501,3.8462,3.864,3.8581,3.8602,3.8677,3.8856,3.8868,3.8878,3.8965,3.8989,3.9009,0,0,0,0,0,0,3.8271,3.8302,3.8278,3.8408,3.8446,3.8477,3.8545,3.8516,3.857,3.8559,3.854,3.855,3.8664,3.8681,3.8614,3.8814,3.8739,3.8755,3.8798,3.8821,3.8839,3.8832,3.8536,0,0,0,0,0,3.8305,3.8376,3.8399,3.8512,3.8532,3.8536,3.8574,3.8561,3.86,3.8616,3.8635,3.8673,3.8737,3.878,3.8841,3.8976,3.8982,3.9037,3.9055,3.907,3.9084,3.9153,3.9177,3.8921,3.8921,3.8921,0,0,3.8377,3.8403,3.8449,3.853,3.8558,3.863,3.855,3.8631,3.8683,3.8628,3.8731,3.8746,3.8788,3.8909,3.8964,3.8927,3.9156,3.9084,3.9096,3.9102,3.9167,3.9191,3.9213,3.8928,3.8927,3.8926,0,0,3.8545,3.8573,3.8668,3.8697,3.874,3.8741,3.8764,3.8799,3.8807,3.891,3.8868,3.893,3.9043,3.9073,3.9103,3.9279,3.9244,3.9299,3.9394,3.9462,3.9482,3.95,3.956,3.9582,3.9313,3.9313,3.9313,0,3.8629,3.8737,3.872,3.8803,3.8839,3.8791,3.8886,3.8915,3.8976,3.9001,3.8959,3.9097,3.9122,3.9248,3.9291,3.9318,3.9341,3.9294,3.948,3.9498,3.9514,3.9571,3.9594,3.932,3.9319,3.9318,3.9318,0,3.8836,3.8911,3.8983,3.9042,3.9085,3.9174,3.917,3.9216,3.9198,3.9203,3.9306,3.9334,3.9398,3.9427,3.9411,3.9551,3.9526,3.9483,3.9408,3.9545,3.9598,3.962,3.9328,3.9326,3.9324,3.9323,0,0,3.9062,3.9109,3.9136,3.9161,3.9204,3.9261,3.9346,3.9408,3.9447,3.949,3.9559,3.9654,3.9613,3.9647,3.9634,3.9693,3.9827,3.9642,3.9643,3.9674,3.9979,4.001,4.0036,3.9805,3.9809,3.9812,3.9975,0,3.923,3.9378,3.9365,3.9505,3.9573,3.9527,3.9601,3.9634,3.9641,3.9698,3.9704,3.977,3.9713,3.9733,3.979,3.9799,3.9888,3.9787,3.9867,3.987,3.9857,4.0065,4.0099,4.0251,3.9996,4.0,4.0002,0,3.9446,3.9495,3.9642,3.9671,3.9699,3.9766,3.982,3.9876,3.9912,3.9912,3.9949,3.9925,4.0008,3.9932,4.0045,3.9977,4.0009,4.0018,4.0023,4.0029,3.9944,4.0074,4.03,4.0322,4.0035,4.0033,4.003,0,3.9593,3.9696,3.9796,3.9819,3.9858,3.9905,3.9923,3.9954,3.9991,4.0038,4.0062,4.0118,4.0149,4.0192,4.0183,4.0128,4.0298,4.0221,4.0298,4.0299,4.0335,4.0333,4.0567,4.0359,4.0359,4.0358,4.0358,0,3.978,3.9871,3.9863,3.9924,4.0024,4.0007,4.0106,4.0118,4.0146,4.0207,4.0172,4.023,4.0215,4.0272,4.0265,4.0359,4.0373,4.0374,4.0371,4.0377,4.0376,4.0397,4.0385,4.0364,4.0363,4.0362,4.0361,0,3.9962,3.996,4.0066,4.0092,4.0101,4.0173,4.0195,4.0252,4.0254,4.0333,4.035,4.0354,4.042,4.0415,4.0489,4.0484,4.0599,4.0584,4.0587,4.0583,4.0659,4.0651,4.0914,4.0946,4.0718,4.072,4.0722,0,4.0081,4.0149,4.0183,4.0221,4.0242,4.0306,4.0343,4.0328,4.0368,4.0412,4.0463,4.0525,4.0574,4.0681,4.0689,4.0745,4.073,4.0818,4.0738,4.0741,4.0729,4.0724,4.073,4.0833,4.0836,4.0838,4.084,0,4.0291,4.0286,4.0341,4.0396,4.0441,4.0483,4.0521,4.0555,4.0543,4.059,4.0656,4.0694,4.0768,4.0829,4.0882,4.0899,4.0867,4.0865,4.0885,4.0891,4.0889,4.0889,4.0627,4.0859,4.0857,4.0855,4.0854,4.0854,4.0444,4.0501,4.0533,4.0595,4.0622,4.0658,4.0712,4.072,4.0775,4.0835,4.0822,4.0896,4.0927,4.0994,4.1016,4.1073,4.1041,4.1071,4.1078,4.1086,4.1093,4.0881,4.1082,4.1082,4.1081,4.1081,4.108,0,4.065,4.0668,4.0725,4.0779,4.0827,4.0793,4.0833,4.0875,4.094,4.0972,4.102,4.1095,4.1154,4.1166,4.1222,4.1264,4.1251,4.1279,4.1275,4.1279,4.112,4.1096,4.1289,4.1289,4.1289,4.1289,4.1289,4.1289,4.0764,4.0859,4.0857,4.0964,4.098,4.1052,4.1078,4.111,4.1135,4.122,4.1268,4.1276,4.1299,4.1356,4.1407,4.1409,4.143,4.1464,4.146,4.1311,4.129,4.1271,4.1248,4.1469,4.147,4.1614,4.1615,4.1616]}]]